User: anonymous   Login
Location: Unspecified
(0.0000°N, 0.0000°E)
Time: 23:11:18
(UTC+00:00)
Language:

Meteor 2-6 - Orbit

View from above orbital plane
View from above orbital plane
View from above satellite
View from above satellite

Ground track
Ground track

The orbit data is extracted from the following two-line orbital elements,

1 11962U 80073A   18015.62418187 -.00000010  00000-0 -12326-4 0  9990
2 11962  81.2212 213.1961 0035374 203.4698 156.4861 14.10553688921446
Epoch (UTC): 15 January 2018 14:58:49
Eccentricity: 0.0035374
inclination: 81.2212°
perigee height: 832 km
apogee height: 883 km
right ascension of ascending node: 213.1961°
argument of perigee: 203.4698°
revolutions per day: 14.10553688
mean anomaly at epoch: 156.4861°
orbit number at epoch: 92144

The dashed part of the orbit path shows where the satellite is in the earth's shadow,  

DLR